Location: Newark
(58.8333°N, 23.5833°E)
Time: 22:37:27
(UTC+00:00)

METEOR M2 - Pass Details

Date: 14 December 2019
Orbit: 819 x 827 km, 98.5° (Epoch: 18 January)

Event Time Altitude Azimuth Distance (km) Brightness Sun altitude
Exits shadow 16:39:20 32° 28° (NNE) 1,392 ? -22.1°
Drops below altitude 10° 16:42:56 10° 352° (N) 2,431 ? -22.6°
Sets 16:45:27 0° 344° (NNW) 3,367 ? -22.9°
